Location: PSU-Greenbush Astrophysical Observatory
(37.5140°N, 94.9880°W)
Time: 09:01:08
(UTC-06:00)

Altair - Pass Details

Date: 24 January 2020
Orbit: 1502 x 1682 km, 47.2° (Epoch: 24 February)

Event Time Altitude Azimuth Distance (km) Brightness Sun altitude
Rises 16:22:54 0° 300° (WNW) 4,923 10.5 11.6°
Reaches altitude 10° 16:26:16 10° 294° (WNW) 3,920 10.1 11.0°
Maximum altitude 16:35:31 44° 227° (SW) 2,137 9.4 9.5°
Drops below altitude 10° 16:44:28 10° 159° (SSE) 3,786 9.7 8.0°
Sets 16:47:41 0° 153° (SSE) 4,742 10.1 7.5°
